When you browse on this site, cookies collect data to enhance your experience and personalize the content and advertising you see.
Visit our Privacy Policy to learn more. By continuing to use the site, you agree to this use of cookies and data.
  • In Austria
  • List of Countries
  • For 7 days
  • Water Temperature
  • Satellite Maps
  • Weather Map
  • News
  • Weather Widgets
  • user-avatar
    Login

    Hourly Weather Djelfa

    Today, 27 June, Thursday

    Time Temperature Precipitation Wind Pressure Humidity
    00:00 +29°C° 0 mm 5 mps 669 mmHg 16%
    01:00 +28°C° 0 mm 4 mps 668 mmHg 17%
    02:00 +28°C° 0 mm 4 mps 668 mmHg 17%
    03:00 +27°C° 0 mm 4 mps 668 mmHg 18%
    04:00 +28°C° 0 mm 4 mps 668 mmHg 19%
    05:00 +28°C° 0 mm 4 mps 669 mmHg 19%
    06:00 +28°C° 0 mm 4 mps 669 mmHg 20%
    07:00 +32°C° 0 mm 4 mps 670 mmHg 17%
    08:00 +34°C° 0 mm 3 mps 670 mmHg 14%
    09:00 +36°C° 0 mm 3 mps 671 mmHg 12%
    10:00 +37°C° 0 mm 3 mps 671 mmHg 11%
    11:00 +38°C° 0 mm 3 mps 670 mmHg 10%
    12:00 +39°C° 0 mm 3 mps 670 mmHg 9%
    13:00 +39°C° 0 mm 3 mps 670 mmHg 8%
    14:00 +40°C° 0 mm 4 mps 669 mmHg 8%
    15:00 +40°C° 0 mm 4 mps 668 mmHg 7%
    16:00 +40°C° 0 mm 4 mps 668 mmHg 8%
    17:00 +39°C° 0 mm 5 mps 668 mmHg 8%
    18:00 +37°C° 0 mm 5 mps 668 mmHg 8%
    19:00 +35°C° 0 mm 5 mps 667 mmHg 11%
    20:00 +32°C° 0 mm 5 mps 667 mmHg 14%
    21:00 +29°C° 0 mm 6 mps 667 mmHg 17%
    22:00 +28°C° 0 mm 5 mps 667 mmHg 19%
    23:00 +27°C° 0 mm 4 mps 667 mmHg 21%

    Tomorrow, 28 June, Friday

    Time Temperature Precipitation Wind Pressure Humidity
    00:00 +26°C° 0 mm 3 mps 667 mmHg 23%
    01:00 +25°C° 0 mm 3 mps 666 mmHg 24%
    02:00 +24°C° 0 mm 2 mps 666 mmHg 24%
    03:00 +23°C° 0 mm 1 mps 665 mmHg 25%
    04:00 +24°C° 0 mm 1 mps 666 mmHg 26%
    05:00 +25°C° 0 mm 2 mps 666 mmHg 26%
    06:00 +26°C° 0 mm 2 mps 666 mmHg 26%
    07:00 +28°C° 0 mm 2 mps 667 mmHg 24%
    08:00 +30°C° 0 mm 2 mps 667 mmHg 21%
    09:00 +31°C° 0 mm 2 mps 668 mmHg 18%
    10:00 +34°C° 0 mm 2 mps 668 mmHg 15%
    11:00 +35°C° 0 mm 3 mps 668 mmHg 12%
    12:00 +37°C° 0 mm 3 mps 668 mmHg 9%
    13:00 +37°C° 0 mm 4 mps 668 mmHg 8%
    14:00 +38°C° 0 mm 4 mps 667 mmHg 8%
    15:00 +38°C° 0 mm 4 mps 667 mmHg 7%
    16:00 +37°C° 0 mm 5 mps 667 mmHg 8%
    17:00 +37°C° 0 mm 5 mps 667 mmHg 9%
    18:00 +36°C° 0 mm 5 mps 666 mmHg 11%
    19:00 +34°C° 0 mm 5 mps 666 mmHg 15%
    20:00 +30°C° 0 mm 5 mps 666 mmHg 20%
    21:00 +28°C° 0 mm 5 mps 666 mmHg 24%
    22:00 +27°C° 0 mm 5 mps 666 mmHg 25%
    23:00 +27°C° 0 mm 4 mps 666 mmHg 26%

    Day after tomorrow, 29 June, Saturday

    Time Temperature Precipitation Wind Pressure Humidity
    00:00 +26°C° 0 mm 3 mps 666 mmHg 27%
    01:00 +26°C° 0 mm 3 mps 666 mmHg 30%
    02:00 +25°C° 0 mm 4 mps 665 mmHg 32%
    03:00 +25°C° 0 mm 4 mps 665 mmHg 34%
    04:00 +26°C° 0 mm 3 mps 665 mmHg 33%
    05:00 +26°C° 0 mm 3 mps 666 mmHg 32%
    06:00 +27°C° 0 mm 2 mps 666 mmHg 31%
    07:00 +29°C° 0 mm 3 mps 667 mmHg 27%
    08:00 +32°C° 0 mm 5 mps 668 mmHg 24%
    09:00 +34°C° 0 mm 6 mps 668 mmHg 20%
    10:00 +35°C° 0 mm 5 mps 668 mmHg 19%
    11:00 +36°C° 0 mm 4 mps 668 mmHg 17%
    12:00 +37°C° 0 mm 4 mps 668 mmHg 15%
    13:00 +38°C° 0 mm 4 mps 668 mmHg 13%
    14:00 +40°C° 0 mm 4 mps 668 mmHg 11%
    15:00 +41°C° 0 mm 5 mps 668 mmHg 9%
    16:00 +40°C° 0 mm 5 mps 667 mmHg 9%
    17:00 +39°C° 0 mm 5 mps 667 mmHg 10%
    18:00 +39°C° 0 mm 6 mps 667 mmHg 10%
    19:00 +36°C° 0 mm 7 mps 667 mmHg 13%
    20:00 +34°C° 0 mm 8 mps 667 mmHg 17%
    21:00 +31°C° 0 mm 9 mps 667 mmHg 21%
    22:00 +31°C° 0 mm 8 mps 667 mmHg 23%
    23:00 +29°C° 0 mm 8 mps 667 mmHg 24%

    30 June, Sunday

    Time Temperature Precipitation Wind Pressure Humidity
    00:00 +28°C° 0 mm 8 mps 667 mmHg 26%
    01:00 +27°C° 0 mm 7 mps 666 mmHg 27%
    02:00 +26°C° 0 mm 7 mps 666 mmHg 29%
    03:00 +26°C° 0 mm 6 mps 665 mmHg 30%
    04:00 +26°C° 0 mm 5 mps 666 mmHg 29%
    05:00 +26°C° 0 mm 4 mps 666 mmHg 29%
    06:00 +27°C° 0 mm 3 mps 667 mmHg 28%
    07:00 +29°C° 0 mm 4 mps 667 mmHg 24%
    08:00 +32°C° 0 mm 4 mps 668 mmHg 21%
    09:00 +35°C° 0 mm 5 mps 669 mmHg 17%
    10:00 +36°C° 0 mm 5 mps 669 mmHg 15%
    11:00 +37°C° 0 mm 5 mps 669 mmHg 12%
    12:00 +40°C° 0 mm 5 mps 669 mmHg 9%
    13:00 +40°C° 0 mm 6 mps 668 mmHg 8%
    14:00 +40°C° 0 mm 6 mps 668 mmHg 8%
    15:00 +41°C° 0 mm 7 mps 668 mmHg 7%
    16:00 +40°C° 0 mm 6 mps 667 mmHg 7%
    17:00 +39°C° 0 mm 6 mps 667 mmHg 8%
    18:00 +37°C° 0 mm 5 mps 667 mmHg 9%
    19:00 +34°C° 0 mm 5 mps 667 mmHg 14%
    20:00 +32°C° 0 mm 4 mps 667 mmHg 19%
    21:00 +28°C° 0 mm 3 mps 667 mmHg 24%
    22:00 +27°C° 0 mm 3 mps 666 mmHg 27%
    23:00 +26°C° 0 mm 3 mps 666 mmHg 29%

    1 July, Monday

    Time Temperature Precipitation Wind Pressure Humidity
    00:00 +25°C° 0 mm 3 mps 666 mmHg 32%
    01:00 +24°C° 0 mm 2 mps 665 mmHg 34%
    02:00 +23°C° 0 mm 2 mps 665 mmHg 36%
    03:00 +23°C° 0 mm 2 mps 665 mmHg 38%
    04:00 +24°C° 0 mm 2 mps 665 mmHg 35%
    05:00 +25°C° 0 mm 2 mps 666 mmHg 33%
    06:00 +26°C° 0 mm 2 mps 667 mmHg 31%
    07:00 +28°C° 0 mm 3 mps 667 mmHg 28%
    08:00 +29°C° 0 mm 4 mps 668 mmHg 25%
    09:00 +32°C° 0 mm 5 mps 668 mmHg 21%
    10:00 +34°C° 0 mm 4 mps 668 mmHg 19%
    11:00 +35°C° 0 mm 4 mps 668 mmHg 17%
    12:00 +36°C° 0 mm 4 mps 668 mmHg 16%
    13:00 +37°C° 0 mm 4 mps 668 mmHg 14%
    14:00 +37°C° 0 mm 4 mps 668 mmHg 13%
    15:00 +38°C° 0 mm 4 mps 667 mmHg 11%
    16:00 +37°C° 0 mm 4 mps 667 mmHg 12%
    17:00 +37°C° 0 mm 5 mps 667 mmHg 13%
    18:00 +36°C° 0 mm 5 mps 667 mmHg 14%
    19:00 +34°C° 0 mm 6 mps 667 mmHg 19%
    20:00 +32°C° 0 mm 6 mps 667 mmHg 24%
    21:00 +29°C° 0 mm 7 mps 667 mmHg 29%
    22:00 +28°C° 0 mm 7 mps 667 mmHg 31%
    23:00 +27°C° 0 mm 7 mps 667 mmHg 32%

    2 July, Tuesday

    Time Temperature Precipitation Wind Pressure Humidity
    00:00 +26°C° 0 mm 8 mps 667 mmHg 34%
    01:00 +26°C° 0 mm 7 mps 666 mmHg 34%
    02:00 +26°C° 0 mm 7 mps 666 mmHg 33%
    03:00 +24°C° 0 mm 7 mps 666 mmHg 33%
    04:00 +24°C° 0 mm 6 mps 666 mmHg 35%
    05:00 +24°C° 0 mm 6 mps 666 mmHg 36%
    06:00 +24°C° 0 mm 6 mps 667 mmHg 38%
    07:00 +27°C° 0 mm 6 mps 667 mmHg 34%
    08:00 +28°C° 0 mm 7 mps 668 mmHg 30%
    09:00 +30°C° 0 mm 7 mps 668 mmHg 25%
    10:00 +33°C° 0 mm 6 mps 668 mmHg 23%
    11:00 +34°C° 0 mm 5 mps 668 mmHg 20%
    12:00 +35°C° 0 mm 4 mps 668 mmHg 17%
    13:00 +36°C° 0 mm 4 mps 668 mmHg 16%
    14:00 +36°C° 0 mm 4 mps 667 mmHg 15%
    15:00 +37°C° 0 mm 3 mps 667 mmHg 13%
    16:00 +34°C° 0 mm 5 mps 666 mmHg 18%
    17:00 +32°C° 0 mm 7 mps 666 mmHg 23%
    18:00 +29°C° 0 mm 8 mps 666 mmHg 28%
    19:00 +27°C° 0 mm 8 mps 666 mmHg 32%
    20:00 +26°C° 0 mm 7 mps 666 mmHg 37%
    21:00 +23°C° 0 mm 6 mps 666 mmHg 41%
    22:00 +25°C° 0 mm 5 mps 666 mmHg 40%
    23:00 +25°C° 0 mm 3 mps 666 mmHg 38%
    Show more